Weather Roundup
Issued by NWS Chicago, IL

Home | Current Version | Previous Version | Graphics & Text | Print | Product List | Glossary On
Versions: 1 2 3 4 5 6 7 8 9 10 11 12 13 14 15 16 17 18 19 20 21 22 23 24 25 26 27 28 29 30 31 32 33 34 35 36 37 38 39 40 41 42 43 44 45 46 47 48 49 50
000
NZUS59 KLOT 041121
HRRLOT

CHICAGO AREA WEATHER ROUNDUP
NATIONAL WEATHER SERVICE CHICAGO/ROMEOVILLE IL
600 AM CDT TUE AUG 04 2015

NOTE: "FAIR" INDICATES FEW OR NO CLOUDS BELOW 12,000 FEET WITH NO
SIGNIFICANT WEATHER AND/OR OBSTRUCTIONS TO VISIBILITY.

* THESE STATIONS ARE NOT UNDER NWS QUALITY CONTROL. THEY ALSO MAY NOT
  REPORT WEATHER SUCH AS PRECIPITATION OR FOG.

ILZ005-006-012>014-019>023-041200-
NORTHEAST ILLINOIS

CITY           SKY/WX    TMP DP  RH WIND       PRES   REMARKS
OHARE          PTCLDY    61  55  81 W3        29.94R
MIDWAY         PTCLDY    65  55  70 CALM      29.94R
AURORA         CLEAR     55  52  89 CALM      29.95R
LANSING*       CLEAR     57  55  94 CALM      29.95R
JOLIET*          N/A     56  55  98 CALM      29.96R
WAUKEGAN       CLEAR     58  55  90 SW3       29.93R
DUPAGE AIRPORT CLEAR     58  55  90 CALM      29.95R
WHEELING       CLEAR     61  54  77 CALM      29.95R
KANKAKEE*      CLEAR     57  55  94 W3        29.97R
MORRIS*        CLEAR     56  54  92 CALM      29.95R
LEWIS AIRPORT* CLEAR     56  54  91 CALM      29.96R
NORTHERLY IS     N/A     68  54  60 W6          N/A
$$

WIZ051-052-058>065-066-070>072-041200-
SOUTHEAST WISCONSIN

CITY           SKY/WX    TMP DP  RH WIND       PRES   REMARKS
MILWAUKEE      CLEAR     62  52  69 SW3       29.92R
KENOSHA*       CLEAR     57  53  86 SW3       29.93R
RACINE*        CLEAR     61  52  72 W6        29.94R
BURLINGTON     CLEAR     51  49  96 CALM      29.93R
WAUKESHA       CLEAR     54  50  87 CALM      29.93S
WEST BEND      CLEAR     54  52  94 CALM      29.91S
$$

INZ001>003-010>013-019-020-041200-
NORTHWEST INDIANA

CITY           SKY/WX    TMP DP  RH WIND       PRES   REMARKS
GARY*          CLEAR     61  57  88 CALM      29.95R
MICHIGAN CITY* NOT AVBL
RENSSELAER*    NOT AVBL
VALPARAISO     CLEAR     61  55  81 W6        29.96R
$$

LMZ740>746-041200-
SOUTHERN LAKE MICHIGAN

STATION/POSITION TIME  SKY/WX   TEMP WIND        PRES    VSBY
                                AIR  DIR/SP/G
                 (UTC)          (F)  (DEG/KT/KT) (MB)    (MI)
HARRISON CRIB    1100            68  270/  8/  9   N/A
BURNHAM HARBOR   1100            68  270/  6/  8   N/A
CALUMET HARBOR   1000            65  250/  2/  3   N/A
BURNS HARBOR     1000            64  200/  4/  5 1013.9S
MICHIGAN CITY    1100            63  150/  4/  4   N/A
$$

ABBREVIATIONS USED IN REMARKS
   TC - TEMPERATURE IN CELSIUS
  WCI - WIND CHILL INDEX
   HX - HEAT INDEX
  VSB - VISIBILITY
$$


USA.gov is the U.S. government's official web portal to all federal, state and local government web resources and services.